This is the latest recevied weather packets stored in our database for station/object S56VIL-11. If no packets are shown the sender has not sent any weather packets the latest 10 day(s).
| Time | Temp. | Humidity | Pressure | Rain* | Wind** | Luminosity | Snow |
|---|---|---|---|---|---|---|---|
| 1777920974 | 13.33° C | 52% | 1029 hPa | - | - | - | - |
| 1777920074 | 13.33° C | 51% | 1028.9 hPa | - | - | - | - |
| 1777919174 | 13.89° C | 51% | 1028.7 hPa | - | - | - | - |
| 1777918274 | 14.44° C | 51% | 1028.7 hPa | - | - | - | - |
| 1777917374 | 15° C | 51% | 1028.5 hPa | - | - | - | - |
| 1777916474 | 15° C | 51% | 1028.4 hPa | - | - | - | - |
| 1777914674 | 15.56° C | 50% | 1028.3 hPa | - | - | - | - |
| 1777913774 | 16.67° C | 50% | 1028.3 hPa | - | - | - | - |
| 1777912874 | 17.78° C | 50% | 1028.4 hPa | - | - | - | - |
| 1777911974 | 19.44° C | 50% | 1028.4 hPa | - | - | - | - |
| 1777911074 | 18.33° C | 50% | 1028.5 hPa | - | - | - | - |
| 1777910174 | 20.56° C | 49% | 1028.7 hPa | - | - | - | - |
| 1777909274 | 20.56° C | 49% | 1028.7 hPa | - | - | - | - |
| 1777908374 | 18.89° C | 49% | 1028.8 hPa | - | - | - | - |
| 1777907473 | 18.89° C | 50% | 1028.9 hPa | - | - | - | - |
| 1777906573 | 18.89° C | 50% | 1029.1 hPa | - | - | - | - |
| 1777905673 | 20° C | 49% | 1028.9 hPa | - | - | - | - |
| 1777904773 | 20.56° C | 50% | 1029.1 hPa | - | - | - | - |
| 1777903873 | 22.78° C | 49% | 1029.2 hPa | - | - | - | - |
| 1777902973 | 25° C | 48% | 1029.1 hPa | - | - | - | - |
| 1777902074 | 21.67° C | 48% | 1029.1 hPa | - | - | - | - |
| 1777900273 | 20.56° C | 50% | 1029.6 hPa | - | - | - | - |
| 1777899373 | 19.44° C | 50% | 1029.7 hPa | - | - | - | - |
| 1777898473 | 20.56° C | 50% | 1029.7 hPa | - | - | - | - |
| 1777897573 | 21.11° C | 49% | 1029.7 hPa | - | - | - | - |
* Rain since midnight (hover to see other rain measurements)
** Current wind speed in m/s (hover to see current wind gust speed)